Regional Weather Roundup
Issued by NWS Little Rock, AR

Home | Current Version | Previous Version | Graphics & Text | Print | Product List | Glossary On
Versions: 1 2 3 4 5 6 7 8 9 10 11 12 13 14 15 16 17 18 19 20 21 22 23 24 25 26 27
000
ASUS44 KLZK 260605
RWRLZK

WEATHER ROUNDUP FOR ARKANSAS
NATIONAL WEATHER SERVICE LITTLE ROCK AR
100 AM CDT TUE JUL 26 2016

NOTE: "FAIR" INDICATES FEW OR NO CLOUDS BELOW 12,000 FEET WITH NO
SIGNIFICANT WEATHER AND/OR OBSTRUCTIONS TO VISIBILITY.

ARZ001-003-010-029-260700-
NORTHWEST ARKANSAS

CITY           SKY/WX    TMP DP  RH WIND       PRES   REMARKS
FAYETTEVILLE   PTCLDY    74  73  97 CALM      30.03F
6HR MIN TEMP:  73; 6HR MAX TEMP:  84;

FORT SMITH     CLEAR     79  74  84 E7        29.98R
6HR MIN TEMP:  79; 6HR MAX TEMP:  89;

HARRISON       CLOUDY    74  73  97 CALM      30.04S
6HR MIN TEMP:  73; 6HR MAX TEMP:  83;

BENTONVILLE    CLEAR     75  70  83 E3        30.04F
6HR MIN TEMP:  75; 6HR MAX TEMP:  82;

ROGERS         CLEAR     75  72  90 E3        30.05S
6HR MIN TEMP:  75; 6HR MAX TEMP:  83;

SILOAM SPGS    CLEAR     75  64  69 E7        30.04F
6HR MIN TEMP:  75; 6HR MAX TEMP:  82;

HIGHFILL       CLEAR     77  74  90 SE5       30.04S
6HR MIN TEMP:  75; 6HR MAX TEMP:  85;

$$

ARZ004-005-016-260700-
NORTH CENTRAL ARKANSAS

CITY           SKY/WX    TMP DP  RH WIND       PRES   REMARKS
BATESVILLE     CLOUDY    75  72  88 CALM      29.99S
6HR MIN TEMP:  75; 6HR MAX TEMP:  90;

FLIPPIN        CLOUDY    75  70  83 CALM      29.98F
6HR MIN TEMP:  75; 6HR MAX TEMP:  86;

MTN HOME       MOCLDY    73  72  96 CALM      30.01F
6HR MIN TEMP:  73; 6HR MAX TEMP:  85; 6HR PCP:  0.09;

$$

ARZ040-041-260700-
WEST CENTRAL ARKANSAS

CITY           SKY/WX    TMP DP  RH WIND       PRES   REMARKS
MENA           PTCLDY    75  73  94 CALM      30.00S
MOUNT IDA      FOG       76  76 100 CALM      29.96S VSB 3/4
6HR MIN TEMP:  76; 6HR MAX TEMP:  80;

$$

ARZ009-017-025-026-028-260700-
NORTHEAST ARKANSAS

CITY           SKY/WX    TMP DP  RH WIND       PRES   REMARKS
CORNING          N/A     77  77 100 NE5       29.98F
JONESBORO      CLEAR     79  77  94 E3        29.97F
6HR MIN TEMP:  79; 6HR MAX TEMP:  88;

NEWPORT        CLEAR     78  78 100 NW5       29.98F
6HR MIN TEMP:  78; 6HR MAX TEMP:  90;

WALNUT RIDGE   CLEAR     79  75  89 N3        29.96S
6HR MIN TEMP:  79; 6HR MAX TEMP:  81;

BLYTHEVILLE    CLEAR     79  75  87 CALM      29.98F
6HR MIN TEMP:  78; 6HR MAX TEMP:  85;

$$

ARZ022-023-033-042-044-260700-
CENTRAL ARKANSAS

CITY           SKY/WX    TMP DP  RH WIND       PRES   REMARKS
LITTLE ROCK    PTCLDY    83  76  79 SE3       29.96R HX  91
6HR MIN TEMP:  83; 6HR MAX TEMP:  94;

JACKSONVILLE   PTCLDY    79  77  94 CALM      29.96S
6HR MIN TEMP:  78; 6HR MAX TEMP:  92;

SEARCY         CLEAR     79  76  90 CALM      29.98S
6HR MIN TEMP:  79; 6HR MAX TEMP:  92;

HOT SPRINGS    CLEAR     78  76  93 CALM      29.97S
6HR MIN TEMP:  78; 6HR MAX TEMP:  82; 6HR PCP: TRACE;

RUSSELLVILLE   RAIN      74  72  93 N7        29.98R
6HR MIN TEMP:  74; 6HR MAX TEMP:  90; 6HR PCP:  0.32;

$$

ARZ036-260700-
EAST ARKANSAS

CITY           SKY/WX    TMP DP  RH WIND       PRES   REMARKS
WEST MEMPHIS   CLEAR     78  76  93 CALM      29.96F
6HR MIN TEMP:  77; 6HR MAX TEMP:  89; 6HR PCP: TRACE;

$$

ARZ050-053-066-070-073-260700-
SOUTHWEST ARKANSAS

CITY           SKY/WX    TMP DP  RH WIND       PRES   REMARKS
CAMDEN         CLEAR     75  72  88 CALM      29.94R
TEXARKANA      CLEAR     78  74  87 CALM      29.93S
6HR MIN TEMP:  77; 6HR MAX TEMP:  82;

EL DORADO      CLEAR     76  75  97 E3        29.94S
6HR MIN TEMP:  76; 6HR MAX TEMP:  91;

DE QUEEN       PTCLDY    77  76  96 CALM      29.93R
6HR MIN TEMP:  76; 6HR MAX TEMP:  85;

$$

ARZ056-057-069-260700-
SOUTHEAST ARKANSAS

CITY           SKY/WX    TMP DP  RH WIND       PRES   REMARKS
PINE BLUFF     CLEAR     77  75  93 CALM      29.95F
6HR MIN TEMP:  77; 6HR MAX TEMP:  91;

STUTTGART      CLEAR     82  73  74 E5        29.95F HX  88
6HR MIN TEMP:  81; 6HR MAX TEMP:  91;

MONTICELLO     PTCLDY    80  76  87 CALM      29.95S HX  86
6HR MIN TEMP:  79; 6HR MAX TEMP:  91;


$$






USA.gov is the U.S. government's official web portal to all federal, state and local government web resources and services.